Location: *
(35.2348°S, 91.3916°E)
Time: 16:40:45
(UTC+00:00)

TSX-5 - Pass Details

Date: 23 October 2019
Orbit: 402 x 1335 km, 68.9° (Epoch: 21 November)

Event Time Altitude Azimuth Distance (km) Brightness Sun altitude
Rises 13:19:43 0° 207° (SSW) 3,290 8.6 -13.1°
Reaches altitude 10° 13:22:25 10° 208° (SSW) 2,195 7.7 -13.6°
Maximum altitude 13:27:14 68° 290° (WNW) 632 4.2 -14.5°
Enters shadow 13:30:23 15° 12° (NNE) 1,471 5.6 -15.1°
